| time (UTC) | temp C | wind direction | speed KPH | gust KPH | rain 1hr cm | rain 24hr cm | rain mn cm | humidity % | barometer mb |
| 20260502200041 | 15 | 220 | 9.7 | 16.1 | 0.00 | 0.00 | 0.00 | 61 | 1008.3 |
| 20260502194537 | 15 | 224 | 3.2 | 8.0 | 0.00 | 0.00 | 0.00 | 61 | 1008.3 |
| 20260502193034 | 15 | 195 | 4.8 | 8.0 | 0.00 | 0.00 | 0.00 | 60 | 1008.3 |
| 20260502191539 | 16 | 217 | 4.8 | 9.7 | 0.00 | 0.00 | 0.00 | 59 | 1008.3 |
| 20260502184535 | 16 | 249 | 3.2 | 9.7 | 0.00 | 0.00 | 0.00 | 57 | 1008.2 |
| 20260502183134 | 17 | 288 | 4.8 | 11.3 | 0.00 | 0.00 | 0.00 | 56 | 1008.1 |
| 20260502181534 | 17 | 257 | 6.4 | 12.9 | 0.00 | 0.00 | 0.00 | 54 | 1008.2 |
| 20260502163135 | 20 | 273 | 9.7 | 17.7 | 0.00 | 0.00 | 0.00 | 47 | 1008.3 |
| 20260502161534 | 20 | 269 | 14.5 | 20.9 | 0.00 | 0.00 | 0.00 | 46 | 1008.5 |
| 20260502151538 | 21 | 213 | 16.1 | 38.6 | 0.00 | 0.00 | 0.00 | 37 | 1008.9 |
| 20260502130133 | 22 | 262 | 25.7 | 54.7 | 0.00 | 0.00 | 0.00 | 38 | 1010.2 |
| 20260502123033 | 22 | 249 | 20.9 | 43.5 | 0.00 | 0.00 | 0.00 | 39 | 1010.5 |
| 20260502121633 | 21 | 266 | 29.0 | 45.1 | 0.00 | 0.00 | 0.00 | 38 | 1010.7 |
| 20260502114538 | 21 | 209 | 29.0 | 43.5 | 0.00 | 0.00 | 0.00 | 40 | 1011.1 |
| 20260502113039 | 21 | 223 | 25.7 | 45.1 | 0.00 | 0.00 | 0.00 | 42 | 1011.2 |
| 20260502111633 | 21 | 250 | 27.4 | 49.9 | 0.00 | 0.00 | 0.00 | 41 | 1011.5 |
| 20260502110036 | 21 | 221 | 25.7 | 35.4 | 0.00 | 0.00 | 0.00 | 42 | 1011.7 |
| 20260502104547 | 20 | 230 | 30.6 | 41.8 | 0.00 | 0.00 | 0.00 | 40 | 1011.9 |
| 20260502103035 | 21 | 217 | 20.9 | 37.0 | 0.00 | 0.00 | 0.00 | 44 | 1012.0 |
| 20260502101536 | 21 | 238 | 22.5 | 37.0 | 0.00 | 0.00 | 0.00 | 44 | 1012.3 |
| 20260502070042 | 13 | 196 | 8.0 | 14.5 | 0.00 | 0.00 | 0.00 | 63 | 1014.7 |
| 20260502064539 | 13 | 178 | 8.0 | 12.9 | 0.00 | 0.00 | 0.00 | 64 | 1015.0 |
| 20260502063037 | 12 | 206 | 8.0 | 14.5 | 0.00 | 0.00 | 0.00 | 65 | 1015.1 |
| 20260502061535 | 12 | 171 | 8.0 | 12.9 | 0.00 | 0.00 | 0.00 | 67 | 1015.3 |
| 20260502060033 | 11 | 160 | 6.4 | 11.3 | 0.00 | 0.00 | 0.00 | 69 | 1015.4 |
| 20260502054537 | 11 | 172 | 4.8 | 11.3 | 0.00 | 0.00 | 0.00 | 71 | 1015.6 |
| 20260502053038 | 10 | 148 | 6.4 | 9.7 | 0.00 | 0.00 | 0.00 | 72 | 1015.7 |
| 20260502051557 | 10 | 182 | 4.8 | 8.0 | 0.00 | 0.00 | 0.00 | 73 | 1015.7 |
| 20260502050038 | 8 | 157 | 3.2 | 8.0 | 0.00 | 0.00 | 0.00 | 76 | 1015.8 |
| 20260502044537 | 8 | 155 | 1.6 | 9.7 | 0.00 | 0.00 | 0.00 | 79 | 1016.0 |
| 20260502043044 | 7 | 179 | 6.4 | 12.9 | 0.00 | 0.00 | 0.00 | 80 | 1016.1 |
| 20260502041540 | 7 | 157 | 6.4 | 11.3 | 0.00 | 0.00 | 0.00 | 82 | 1016.2 |
| 20260502040036 | 6 | 145 | 4.8 | 8.0 | 0.00 | 0.00 | 0.00 | 83 | 1016.4 |
| 20260502034545 | 6 | 167 | 4.8 | 8.0 | 0.00 | 0.00 | 0.00 | 82 | 1016.6 |
| 20260502033048 | 6 | 153 | 4.8 | 8.0 | 0.00 | 0.00 | 0.00 | 83 | 1016.7 |
| 20260502031547 | 5 | 160 | 4.8 | 8.0 | 0.00 | 0.00 | 0.00 | 82 | 1016.8 |
| 20260502030033 | 6 | 145 | 6.4 | 11.3 | 0.00 | 0.00 | 0.00 | 79 | 1016.9 |
| 20260502024535 | 6 | 141 | 4.8 | 9.7 | 0.00 | 0.00 | 0.00 | 78 | 1017.0 |
| 20260502023033 | 6 | 146 | 3.2 | 8.0 | 0.00 | 0.00 | 0.00 | 76 | 1017.2 |
| 20260502021634 | 7 | 164 | 4.8 | 6.4 | 0.00 | 0.00 | 0.00 | 75 | 1017.3 |
| 20260502020033 | 7 | 171 | 3.2 | 9.7 | 0.00 | 0.00 | 0.00 | 74 | 1017.5 |
| 20260502014534 | 7 | 167 | 6.4 | 9.7 | 0.00 | 0.00 | 0.00 | 73 | 1017.6 |
| 20260502011545 | 8 | 205 | 8.0 | 11.3 | 0.00 | 0.00 | 0.00 | 71 | 1017.9 |
| 20260502010036 | 8 | 240 | 6.4 | 11.3 | 0.00 | 0.00 | 0.00 | 71 | 1018.1 |
| 20260502004536 | 8 | 198 | 3.2 | 9.7 | 0.00 | 0.00 | 0.00 | 69 | 1018.1 |
| 20260502003135 | 9 | 197 | 6.4 | 11.3 | 0.00 | 0.00 | 0.00 | 68 | 1018.3 |
| 20260502001537 | 9 | 205 | 8.0 | 12.9 | 0.00 | 0.00 | 0.00 | 67 | 1018.3 |
| 20260502000033 | 10 | 205 | 9.7 | 19.3 | 0.00 | 0.00 | 0.00 | 66 | 1018.4 |
| 20260501234548 | 10 | 192 | 12.9 | 19.3 | 0.00 | 0.00 | 0.00 | 65 | 1018.5 |
| 20260501233132 | 10 | 198 | 12.9 | 24.1 | 0.00 | 0.00 | 0.00 | 64 | 1018.6 |
| 20260501231547 | 10 | 204 | 11.3 | 20.9 | 0.00 | 0.00 | 0.00 | 64 | 1018.7 |
| 20260501230036 | 10 | 188 | 9.7 | 17.7 | 0.00 | 0.00 | 0.00 | 66 | 1018.7 |
| 20260501224532 | 10 | 192 | 11.3 | 19.3 | 0.00 | 0.00 | 0.00 | 66 | 1018.8 |
| 20260501223035 | 10 | 188 | 8.0 | 16.1 | 0.00 | 0.00 | 0.00 | 65 | 1018.8 |
| 20260501221538 | 10 | 190 | 9.7 | 14.5 | 0.00 | 0.00 | 0.00 | 64 | 1019.0 |
| 20260501220036 | 10 | 187 | 8.0 | 12.9 | 0.00 | 0.00 | 0.00 | 63 | 1019.1 |
| 20260501214545 | 11 | 236 | 4.8 | 9.7 | 0.00 | 0.00 | 0.00 | 60 | 1019.4 |
| 20260501213039 | 11 | 239 | 11.3 | 17.7 | 0.00 | 0.00 | 0.00 | 58 | 1019.4 |
| 20260501211532 | 11 | 220 | 4.8 | 20.9 | 0.00 | 0.00 | 0.00 | 57 | 1019.5 |
| 20260501210035 | 12 | 219 | 8.0 | 22.5 | 0.00 | 0.00 | 0.00 | 56 | 1019.5 |
| 20260501204538 | 12 | 213 | 11.3 | 22.5 | 0.00 | 0.00 | 0.00 | 57 | 1019.4 |
| 20260501203034 | 11 | 182 | 9.7 | 17.7 | 0.00 | 0.00 | 0.00 | 59 | 1019.5 |
| 20260501201541 | 11 | 208 | 8.0 | 14.5 | 0.00 | 0.00 | 0.00 | 59 | 1019.5 |
| 20260501200132 | 11 | 178 | 8.0 | 12.9 | 0.00 | 0.00 | 0.00 | 58 | 1019.6 |